[[{"header":{"parameterUnit":"m.s-1","parameterCategory":1,"la1":30.2991,"la2":30.254,"lo1":-89.0895,"lo2":-89.0444,"dy":0.0017,"dx":0.0017,"nx":28,"ny":28,"refTime":"2023-07-29T03:00:00:Z","depth":0,"parameterNumber":2,"parameterNumberName":"U-component_of_WINDS"},"data":[0,0,0,0,0,0,0,0,0,0,0,0,0,0,0,0,0,0,0,0,0,0,0,0,0,0,0,0,0,0,0,0,0,0,0,0,0,0,0,0,0,0,0,0,0,0,0,0,0,0,0,0,0,0,0,0,0,0,1.0358,1.0359,0,1.0432,1.0433,1.0434,1.0437,1.0436,1.0435,1.0434,1.0511,1.0514,1.0517,0,0,0,0,0,0,0,0,0,0,0,0,0,1.0217,1.0219,1.0358,1.0359,1.036,1.0432,1.0433,1.0434,1.0437,1.0436,1.0434,1.0433,1.051,1.0514,1.0517,0,0,0,0,0,0,0,0,0,0,0,0,0,1.0283,1.022,1.0357,1.0369,1.0371,1.0432,1.0433,1.0434,1.0437,1.0436,1.0434,1.0433,1.0509,1.0514,1.0518,1.0572,0,0,1.0531,1.0533,0,0,0,0,0,0,0,0,1.028,1.0289,1.0367,1.0369,1.0371,1.0424,1.0412,1.0481,1.0437,1.0412,1.0434,1.0432,1.0483,1.049,1.0507,1.0575,1.0579,1.0532,1.0534,1.0536,1.0537,0,0,0,0,0,0,0,1.0275,1.0285,1.0387,1.0368,1.037,1.0371,1.0379,1.0425,1.0454,1.0414,1.0414,1.0423,1.0484,1.0503,1.0509,1.058,1.0531,1.0535,1.0538,1.054,1.0694,1.0695,0,0,0,0,0,0,1.0268,1.0282,1.0385,1.0389,1.0321,1.0375,1.0383,1.0408,1.0454,1.046,1.0424,1.0423,1.0496,1.0504,1.0511,1.0575,1.0536,1.054,1.0543,1.0692,1.0694,1.0696,0,0,0,0,0,0,1.0265,1.0277,1.0382,1.0336,1.0349,1.0378,1.0406,1.041,1.0429,1.0462,1.0467,1.0438,1.0495,1.0505,1.0556,1.0578,1.0542,1.0546,1.0691,1.0693,1.0695,1.0705,0,0,0,0,0,0,1.0261,1.0276,1.0297,1.0336,1.0351,1.0425,1.0408,1.0413,1.0436,1.0435,1.0475,1.0481,1.0495,1.055,1.056,1.0584,1.0549,1.0689,1.0692,1.0694,1.0703,1.0708,1.0712,0,0,0,0,0,1.0256,1.0298,1.0298,1.0311,1.0378,1.0427,1.0436,1.045,1.0438,1.0459,1.048,1.048,1.0574,1.0555,1.0567,1.0592,1.0687,1.0691,1.0694,1.0701,1.0707,1.0712,0,0,0,0,0,0,1.0262,1.0303,1.0304,1.036,1.039,1.0427,1.0454,1.0456,1.049,1.0488,1.0505,1.0514,1.0564,1.0584,1.0561,1.0645,1.0629,1.0635,1.0631,1.0636,1.064,1.0634,1.0553,0,0,0,0,0,1.027,1.0306,1.034,1.0386,1.0401,1.0425,1.0447,1.0455,1.0487,1.0499,1.0524,1.0555,1.0591,1.0615,1.0651,1.0706,1.0714,1.0729,1.0733,1.0737,1.0741,1.077,1.0776,1.0707,1.0707,1.0707,0,0,1.0286,1.0313,1.0335,1.0388,1.0412,1.0448,1.0435,1.0475,1.0501,1.0506,1.0554,1.0573,1.0609,1.0661,1.0686,1.0679,1.0762,1.0741,1.0743,1.0746,1.0774,1.078,1.0786,1.0709,1.0709,1.0708,0,0,1.0335,1.0359,1.0399,1.0423,1.0459,1.0474,1.0484,1.0521,1.0533,1.0582,1.0585,1.0617,1.068,1.0705,1.0725,1.078,1.0781,1.0792,1.0813,1.0841,1.0846,1.0851,1.0869,1.0875,1.0796,1.0796,1.0796,0,1.0351,1.0405,1.042,1.0458,1.048,1.0485,1.0524,1.0547,1.0593,1.0608,1.06,1.0677,1.0701,1.0759,1.0772,1.0789,1.0799,1.0787,1.0844,1.0849,1.0854,1.0871,1.0878,1.0797,1.0797,1.0797,1.0797,0,1.0422,1.0459,1.0487,1.053,1.0556,1.0595,1.0614,1.0639,1.0645,1.0661,1.0709,1.0739,1.0779,1.0794,1.0801,1.0851,1.0845,1.0841,1.0825,1.0861,1.0877,1.0884,1.0798,1.0798,1.0798,1.0798,0,0,1.0477,1.0525,1.0535,1.0553,1.0593,1.0622,1.066,1.0699,1.0718,1.075,1.0782,1.0834,1.0829,1.0852,1.0862,1.0886,1.0925,1.0878,1.0879,1.0884,1.098,1.0983,1.099,1.0926,1.0927,1.0928,1.0977,0,1.0527,1.0595,1.0609,1.0668,1.0701,1.0705,1.0739,1.0766,1.0782,1.0812,1.083,1.0866,1.0857,1.0871,1.0895,1.0915,1.0944,1.0912,1.0955,1.0956,1.0944,1.0999,1.1002,1.1046,1.0983,1.0984,1.0985,0,1.0596,1.0627,1.0689,1.0721,1.0736,1.0766,1.0801,1.0831,1.0861,1.0871,1.0896,1.0902,1.0942,1.0924,1.0978,1.0956,1.0974,1.0986,1.0988,1.0992,1.0972,1.1002,1.1061,1.1067,1.0996,1.0995,1.0994,0,1.0627,1.0685,1.0728,1.0744,1.0784,1.0804,1.0822,1.0851,1.0872,1.0904,1.0917,1.0953,1.0972,1.0999,1.1015,1.1001,1.1066,1.1051,1.1075,1.1074,1.1087,1.1086,1.1148,1.1102,1.1102,1.1102,1.1102,0,1.0681,1.0719,1.0742,1.0769,1.0811,1.0825,1.0866,1.0883,1.0908,1.0938,1.0945,1.0972,1.0992,1.1022,1.1035,1.1076,1.1085,1.1093,1.1096,1.1092,1.1091,1.1103,1.11,1.1103,1.1103,1.1103,1.1102,0,1.0722,1.074,1.0788,1.0821,1.083,1.0858,1.0886,1.0912,1.0927,1.0965,1.0975,1.0999,1.1034,1.1053,1.1098,1.1106,1.1152,1.1154,1.1141,1.1142,1.1164,1.1161,1.1235,1.1245,1.1193,1.1194,1.1194,0,1.0755,1.0784,1.0819,1.0839,1.0856,1.0889,1.091,1.0925,1.0947,1.0983,1.1004,1.104,1.107,1.1127,1.1148,1.1182,1.1184,1.1207,1.1189,1.1183,1.1182,1.1179,1.1181,1.121,1.1211,1.1211,1.1211,0,1.0811,1.0818,1.0848,1.0881,1.0906,1.0934,1.096,1.0976,1.0996,1.102,1.1056,1.1079,1.1124,1.1159,1.1194,1.1212,1.1214,1.1217,1.1224,1.1219,1.121,1.1213,1.1149,1.1215,1.1215,1.1214,1.1214,1.1214,1.0848,1.0872,1.09,1.0933,1.0954,1.0979,1.1004,1.1021,1.1052,1.1089,1.1096,1.1134,1.1162,1.1209,1.1228,1.1258,1.1253,1.1263,1.1265,1.1267,1.1267,1.1206,1.1264,1.1264,1.1264,1.1264,1.1264,0,1.0902,1.0919,1.095,1.0986,1.1012,1.1011,1.104,1.1062,1.1095,1.1121,1.1149,1.1189,1.1223,1.1246,1.128,1.1299,1.1301,1.1307,1.1306,1.1309,1.1271,1.1261,1.1305,1.1305,1.1305,1.1305,1.1305,1.1305,1.0933,1.0973,1.0983,1.1034,1.1052,1.1088,1.1104,1.1126,1.1146,1.1191,1.1218,1.1233,1.1258,1.1293,1.1324,1.133,1.1341,1.1347,1.1353,1.1317,1.1312,1.1308,1.1298,1.135,1.135,1.1389,1.1389,1.1389]},{"header":{"parameterUnit":"m.s-1","parameterCategory":1,"la1":30.2991,"la2":30.254,"lo1":-89.0895,"lo2":-89.0444,"dy":0.0017,"dx":0.0017,"nx":28,"ny":28,"refTime":"2023-07-29T03:00:00:Z","depth":0,"parameterNumber":3,"parameterNumberName":"V-component_of_WINDS"},"data":[0,0,0,0,0,0,0,0,0,0,0,0,0,0,0,0,0,0,0,0,0,0,0,0,0,0,0,0,0,0,0,0,0,0,0,0,0,0,0,0,0,0,0,0,0,0,0,0,0,0,0,0,0,0,0,0,0,0,1.9207,1.9207,0,1.9207,1.9207,1.9207,1.9168,1.9167,1.9166,1.9165,1.9165,1.9166,1.9167,0,0,0,0,0,0,0,0,0,0,0,0,0,1.917,1.9171,1.9207,1.9207,1.9207,1.9207,1.9207,1.9207,1.9168,1.9167,1.9165,1.9164,1.9165,1.9166,1.9167,0,0,0,0,0,0,0,0,0,0,0,0,0,1.918,1.9172,1.9207,1.9187,1.9185,1.9207,1.9207,1.9207,1.9168,1.9167,1.9165,1.9164,1.9164,1.9166,1.9167,1.9208,0,0,1.9172,1.9172,0,0,0,0,0,0,0,0,1.918,1.9182,1.919,1.9189,1.9187,1.9186,1.9195,1.9207,1.9169,1.9175,1.9165,1.9163,1.9173,1.9174,1.9177,1.9208,1.9208,1.9172,1.9173,1.9173,1.9174,0,0,0,0,0,0,0,1.9179,1.9181,1.9207,1.919,1.9188,1.9178,1.9178,1.9197,1.9183,1.9174,1.9171,1.9172,1.9172,1.9176,1.9177,1.9208,1.9172,1.9173,1.9174,1.9175,1.927,1.9271,0,0,0,0,0,0,1.9181,1.9181,1.9207,1.9207,1.9179,1.918,1.918,1.9188,1.9182,1.918,1.9173,1.917,1.9174,1.9175,1.9177,1.9223,1.9173,1.9175,1.9176,1.9268,1.927,1.9272,0,0,0,0,0,0,1.9181,1.9184,1.9207,1.9193,1.9195,1.9182,1.9192,1.9189,1.9192,1.9182,1.9179,1.918,1.9173,1.9175,1.92,1.9222,1.9175,1.9177,1.9266,1.9269,1.9271,1.9315,0,0,0,0,0,0,1.918,1.9184,1.92,1.9194,1.9196,1.923,1.9193,1.919,1.9195,1.9191,1.9187,1.9185,1.9172,1.9198,1.9201,1.9223,1.9178,1.9264,1.9267,1.927,1.9312,1.9319,1.9325,0,0,0,0,0,1.9179,1.9212,1.9201,1.9204,1.9216,1.9232,1.9233,1.9217,1.9197,1.9212,1.9205,1.9185,1.9219,1.9201,1.9204,1.9227,1.9262,1.9266,1.927,1.9309,1.9318,1.9325,0,0,0,0,0,0,1.9221,1.9211,1.9198,1.9231,1.9233,1.9225,1.9244,1.9227,1.9234,1.923,1.921,1.921,1.9237,1.9235,1.9214,1.9265,1.9237,1.9242,1.9266,1.9274,1.9281,1.928,1.9179,0,0,0,0,0,1.9235,1.9249,1.9239,1.9269,1.9271,1.9257,1.9264,1.9251,1.9252,1.9252,1.9247,1.9248,1.9259,1.9267,1.9276,1.9312,1.9309,1.9329,1.9336,1.9341,1.9345,1.9362,1.937,1.9284,1.9284,1.9284,0,0,1.9262,1.9258,1.9269,1.9278,1.9277,1.9292,1.9258,1.9275,1.9286,1.9255,1.9278,1.9274,1.9274,1.9304,1.9317,1.9303,1.9368,1.9346,1.935,1.9351,1.9367,1.9375,1.9382,1.9286,1.9286,1.9285,0,0,1.9319,1.9319,1.9343,1.9343,1.9342,1.9333,1.9339,1.9334,1.933,1.9353,1.9329,1.9342,1.9361,1.9361,1.9364,1.9421,1.9402,1.9424,1.9459,1.9476,1.9483,1.9489,1.9507,1.9515,1.9429,1.9429,1.9429,0,1.9354,1.9375,1.9357,1.9376,1.938,1.9352,1.9376,1.9377,1.938,1.9383,1.9367,1.939,1.9388,1.9417,1.9431,1.9435,1.944,1.9424,1.9483,1.9489,1.9494,1.9512,1.9519,1.9431,1.9431,1.9431,1.943,0,1.9416,1.9431,1.9451,1.9453,1.946,1.9481,1.9466,1.9475,1.9461,1.9454,1.9476,1.9473,1.9481,1.9487,1.9475,1.9514,1.9505,1.9487,1.9458,1.9505,1.9521,1.9528,1.9435,1.9434,1.9433,1.9433,0,0,1.95,1.9492,1.95,1.95,1.9497,1.9508,1.9528,1.9535,1.9542,1.9545,1.956,1.9577,1.9559,1.9562,1.955,1.9565,1.9608,1.9544,1.9544,1.9555,1.9649,1.9663,1.9671,1.9596,1.9597,1.9598,1.9649,0,1.9555,1.9587,1.9571,1.9605,1.9618,1.9592,1.9609,1.9609,1.9602,1.9611,1.9604,1.9615,1.9592,1.9593,1.9607,1.96,1.9626,1.9596,1.9609,1.961,1.9608,1.9679,1.9694,1.9742,1.9655,1.9656,1.9657,0,1.9622,1.9627,1.9662,1.9656,1.966,1.9676,1.968,1.969,1.9689,1.9683,1.9686,1.967,1.9688,1.966,1.9684,1.9664,1.9668,1.9665,1.9667,1.9666,1.9635,1.968,1.9757,1.9764,1.9667,1.9667,1.9666,0,1.9678,1.9694,1.9716,1.9718,1.9711,1.9722,1.972,1.9717,1.9722,1.9726,1.9729,1.9736,1.9739,1.9744,1.973,1.9711,1.9755,1.9727,1.975,1.975,1.9759,1.9759,1.9837,1.9764,1.9764,1.9764,1.9764,0,1.974,1.9762,1.9741,1.9755,1.9779,1.976,1.9784,1.9779,1.9777,1.9789,1.9767,1.9779,1.976,1.9769,1.9758,1.9779,1.9781,1.9776,1.9773,1.9777,1.9778,1.9779,1.9775,1.9766,1.9766,1.9765,1.9765,0,1.9806,1.9793,1.9816,1.9807,1.9806,1.9823,1.9816,1.9828,1.9819,1.9835,1.9837,1.9824,1.9834,1.9821,1.983,1.9822,1.985,1.9842,1.985,1.9847,1.9871,1.9868,1.9952,1.9961,1.9884,1.9885,1.9885,0,1.9846,1.9862,1.9855,1.9861,1.986,1.987,1.9875,1.9857,1.9863,1.9863,1.9875,1.9883,1.9888,1.9906,1.9897,1.9903,1.9895,1.9923,1.9896,1.9899,1.9893,1.9892,1.9893,1.9929,1.993,1.9931,1.9931,0,1.9916,1.9909,1.9916,1.9921,1.9927,1.993,1.9932,1.9938,1.992,1.9927,1.9937,1.9941,1.995,1.9958,1.9962,1.996,1.9942,1.994,1.9946,1.995,1.9953,1.995,1.9864,1.9938,1.9937,1.9937,1.9936,1.9936,1.9969,1.9982,1.9979,1.9987,1.9986,1.9988,1.9998,1.9991,1.9999,2.0004,1.9993,2.0006,2.0003,2.0007,2.0006,2.0015,2.0003,2.0011,2.0013,2.0015,2.0018,1.9953,2.0016,2.0016,2.0016,2.0016,2.0016,0,2.0038,2.0034,2.0042,2.0044,2.0051,2.0034,2.0035,2.0041,2.0052,2.0051,2.0057,2.0068,2.0075,2.0067,2.0073,2.0082,2.0074,2.0084,2.0082,2.0082,2.0029,2.0023,2.009,2.009,2.009,2.009,2.009,2.009,2.0074,2.0094,2.0086,2.0105,2.0101,2.0112,2.0114,2.0115,2.0114,2.0127,2.0133,2.0127,2.0123,2.0129,2.0135,2.0132,2.0135,2.0147,2.0142,2.0093,2.0085,2.0078,2.0073,2.0148,2.0148,2.0193,2.0193,2.0193]}]]